Flag for Germany Weather past 2 weeks in Schwerin, Mecklenburg-Western Pomerania, Germany

Now
38 °F

Scattered clouds.


Feels Like: 33 °F
Forecast: 34 / 47 °F
Wind: 6 mph from Northwest

Location: Schwerin

Current Time: Apr 2, 2015 at 11:57:57 AM

Latest Report: Apr 2, 2015 at 10:00 AM


Visibility: 11 mi

Pressure: 29.66 "Hg

Humidity: 80%

Dew point: 32 °F

Location of SchwerinLocation

Historic Weather in Schwerin — Graph

°F

Schwerin temperature yesterday

Maximum temperature yesterday: 45 °F (at 4:00 PM)
Minimum temperature yesterday: 35 °F (at 11:00 PM)
Average temperature yesterday: 39 °F

Past Weeks' High & Low Weather Summary

 TemperatureHumidityPressure
High58 °F (Mar 18, 3:00 PM)98% (Mar 21, 12:00 PM)30.44 "Hg (Mar 21, 12:00 PM)
Low29 °F (Mar 23, 6:00 AM)22% (Mar 19, 3:00 PM)28.91 "Hg (Mar 30, 12:00 AM)
Average41 °F76%29.84 "Hg
* Reported Mar 18 9:00 AM — Apr 2 10:00 AM, Schwerin, Weather by CustomWeather, © 2015

Note: Actual official high and low records may vary slightly from our data, if they occured in-between our weather recording intervals... More about our weather records

Advertising

Schwerin weather history for previous 24 hours

 ConditionsComfort  
Time TempWeatherWind HumidityBarometerVisibility
10:00 AM
Thu, Apr 2
38 °FScattered clouds.6 mph80%29.66 "Hg11 mi
9:00 AM35 °FScattered clouds.6 mph92%29.66 "Hg9 mi
8:00 AM34 °FLow clouds.5 mph95%29.65 "Hg8 mi
7:00 AM34 °FLow clouds.6 mph94%29.64 "Hg11 mi
6:00 AM34 °FDrizzle. Low clouds.3 mph98%29.63 "Hg5 mi
4:00 AM35 °FLight freezing rain. Low clouds.6 mph95%29.66 "Hg6 mi
3:00 AM35 °FDrizzle. Low clouds.7 mph93%29.70 "Hg14 mi
2:00 AM35 °FOvercast.8 mph90%29.73 "Hg17 mi
1:00 AM35 °FOvercast.6 mph90%29.75 "Hg19 mi
12:00 AM35 °FClear.8 mph87%29.77 "Hg25 mi
11:00 PM
Wed, Apr 1
35 °FPassing clouds.7 mph87%29.79 "Hg31 mi
10:00 PM35 °FOvercast.8 mph89%29.80 "Hg25 mi
9:00 PM37 °FOvercast.8 mph80%29.80 "Hg37 mi
8:00 PM39 °FPassing clouds.8 mph68%29.79 "Hg19 mi
7:00 PM43 °FOvercast.9 mph47%29.77 "Hg28 mi
6:00 PM40 °FPartly sunny.10 mph69%29.77 "Hg17 mi
4:00 PM45 °FScattered clouds.12 mph45%29.72 "Hg13 mi
3:00 PM45 °FPartly sunny.10 mph46%29.71 "Hg16 mi
2:00 PM44 °FScattered clouds.13 mph50%29.70 "Hg17 mi
1:00 PM42 °FPartly sunny.12 mph72%29.68 "Hg17 mi
12:00 PM37 °FLight rain. Haze.13 mph83%29.68 "Hg10 mi
11:00 AM38 °FRain. Low clouds.16 mph85%29.64 "Hg3 mi
Weather by CustomWeather, © 2015

See weather overviewHow to use our weather pages